Regional Weather Roundup
Issued by NWS

Home | Current Version | Previous Version | Text Only | Print | Product List | Glossary On
Versions: 1 2 3 4 5 6 7 8 9 10 11 12 13 14 15 16 17 18 19 20 21 22 23 24 25 26 27 28 29 30 31 32 33 34 35 36 37 38 39 40 41 42 43 44 45 46 47 48 49 50
000
ASUS42 KFFC 271010
RWRGA
WEATHER ROUNDUP FOR GEORGIA
NATIONAL WEATHER SERVICE PEACHTREE CITY GA
600 AM EDT THU APR 27 2017

NOTE: "FAIR" INDICATES FEW OR NO CLOUDS BELOW 12,000 FEET WITH NO
SIGNIFICANT WEATHER AND/OR OBSTRUCTIONS TO VISIBILITY.

* = USE WITH CAUTION. THE STATIONS MARKED WITH AN ASTERISK MAY NOT
REPORT WEATHER SUCH AS PRECIPITATION, FOG, OR THUNDER AND ARE NOT
QUALITY CONTROLLED BY NWS.

THE REMARK "TC" DENOTES TEMPERATURE READING IN DEGREES CELSIUS.

GAZ001>058-271100-
NORTH GEORGIA

CITY           SKY/WX    TMP DP  RH WIND       PRES   REMARKS
ATLANTA        CLOUDY    65  59  81 S12       29.80R
ATHENS         CLOUDY    60  58  92 VRB3      29.81F
CHAMBLEE       CLOUDY    65  57  75 S9        29.80R
PEACHTREE CITY CLOUDY    65  61  87 VRB6      29.81R
ROME           TSTM      65  59  81 CALM      29.73R
WEST ATLANTA   CLOUDY    67  61  81 SW6       29.79R
GAINESVILLE    MOCLDY    62  56  80 S6        29.83R
CARTERSVILLE   CLOUDY    66  58  75 CALM      29.77R


CITY           SKY/WX    TMP DP  RH WIND       PRES   REMARKS
DALTON*        CLOUDY    66  59  77 S5        29.75R
MARIETTA       CLOUDY    66  57  72 S8        29.77
CANTON*        CLOUDY    64  50  59 SE3       29.80R
$$

GAZ059>098-102>109-271100-
CENTRAL GEORGIA

CITY           SKY/WX    TMP DP  RH WIND       PRES   REMARKS
AUGUSTA-BUSH   CLEAR     59  57  93 CALM      29.84R
AUGUSTA-DANIEL CLEAR     63  57  81 S3        29.85R
COLUMBUS       CLOUDY    70  63  78 S10       29.79R
MACON          CLOUDY    63  58  83 SE7       29.82R
ROBINS AFB     MOCLDY    61  57  88 SE7       29.81S


CITY           SKY/WX    TMP DP  RH WIND       PRES   REMARKS
LAGRANGE*      CLOUDY    68  68 100 S5        29.79R
SYLVANIA*      CLEAR    N/A N/A N/A CALM      29.86S
MILLEDGEVILLE* MOCLDY    61  59  94 CALM      29.83S
$$

GAZ099>101-110>166-271100-
SOUTH GEORGIA

CITY           SKY/WX    TMP DP  RH WIND       PRES   REMARKS
SAVANNAH       PTCLDY    63  60  90 S5        29.87F
VALDOSTA       CLOUDY    68  64  87 S12       29.84S
ALMA           CLOUDY    63  58  83 S3        29.85S
ST SIMONS      CLEAR     69  61  75 S5        29.88R
FT STEWART     PTCLDY    59  57  93 CALM      29.85S
ALBANY         CLOUDY    70  67  90 S6        29.83R
HUNTER AFB     CLEAR     63  63 100 CALM      29.85S
MOODY AFB      CLOUDY    68  61  77 SE8       29.83F
BRUNSWICK      PTCLDY    63  63 100 CALM      29.88S


CITY           SKY/WX    TMP DP  RH WIND       PRES   REMARKS
BAINBRIDGE*    CLOUDY    72  68  88 S3        29.81R
MOULTRIE*      CLOUDY    70  66  88 SE7       29.83R
VIDALIA*       MOCLDY    61  55  82 CALM      29.86R
WAYCROSS*      CLOUDY    66  62  89 CALM      29.86R
DOUGLAS*       CLOUDY    64  59  82 SE3       29.87S
$$




USA.gov is the U.S. government's official web portal to all federal, state and local government web resources and services.